STARLINK-1834

Last updated on Tue Nov 24 2020 00:02:03 GMT+0000 (Coordinated Universal Time)

1 46781U 20074AU 20328.58334491 -.00096089 00000-0 -10530-2 0 9996 2 46781 53.0548 13.4206 0001349 59.4654 7.3374 15.62826202 1806

Satellite not in orbit

STARLINK-1834